This demonstration page uses our WeatherBlox Daily Observations layout. Learn more.

Left ArrowRight Arrow

38.80484, -77.04692

Hourly Observations for April 11, 2021

Temp ( °F °C ) Dew Point ( °F °C ) Humidity (%) Winds ( mph kmh ) Pressure ( in mb ) Visibility ( mi km ) Precip ( " mm )
12:52 am 00:52 Cloudy with Light Rain 63 17.2 58 14.4 84 84 SSE 5 7 29.69 1005 10 16.0934 0.02 0.508
1:52 am 01:52 Cloudy with Light Rain 61 16.1 58 14.4 90 90 SE 7 11 29.64 1004 10 16.0934 0.03 0.762
2:52 am 02:52 Cloudy with Light Rain 62 16.7 58 14.4 86 86 Calm 29.6 1002 9 14.48406 0.01 0.254
3:52 am 03:52 Cloudy with Light Rain 63 17.2 59 15 87 87 ESE 7 11 29.58 1002 6 9.65604 0.05 1.27
4:52 am 04:52 Cloudy with Light Rain 63 17.2 60 15.6 90 90 SE 8 13 29.53 1000 10 16.0934 0.02 0.508
5:05 am 05:05 Cloudy with Light Rain 63 17.2 60 15.6 90 90 SE 13 20 29.53 1000 10 16.0934 0.001 0.001
5:14 am 05:14 Cloudy with Light Rain 63 17.2 60 15.6 90 90 ESE 12 19 29.52 1000 10 16.0934 0.001 0.001
5:52 am 05:52 Cloudy 64 17.8 60 15.6 87 87 SSE 10 17 29.5 999 10 16.0934 0.001 0.001
6:42 am 06:42 Cloudy 64 17.8 60 15.6 87 87 SSE 14 22 29.49 999 10 16.0934 0 0
6:52 am 06:52 Cloudy 64 17.8 59 15 84 84 S 18 30 29.49 999 10 16.0934 0 0
6:59 am 06:59 Cloudy 64 17.8 59 15 84 84 S 14 22 29.49 999 10 16.0934 0 0
7:52 am 07:52 Mostly Cloudy 64 17.8 58 14.4 81 81 SSW 12 19 29.49 999 10 16.0934 0 0
8:09 am 08:09 Partly Cloudy 64 17.8 58 14.4 81 81 SW 17 28 29.5 999 10 16.0934 0 0
8:52 am 08:52 Mostly Cloudy 67 19.4 59 15 76 76 WSW 13 20 29.52 1000 10 16.0934 0 0
9:52 am 09:52 Partly Cloudy 71 21.7 59 15 66 66 WSW 13 20 29.52 1000 10 16.0934 0 0
10:52 am 10:52 Partly Cloudy 73 22.8 56 13.3 55 55 WSW 12 19 29.52 1000 10 16.0934 0 0
11:52 am 11:52 Partly Cloudy 75 23.9 55 12.8 50 50 W 8 13 29.51 999 10 16.0934 0 0
12:52 pm 12:52 Partly Cloudy 77 25 54 12.2 45 45 SW 14 22 29.51 999 10 16.0934 0 0
1:52 pm 13:52 Mostly Sunny 78 25.6 51 10.6 39 39 VRB 5 7 29.47 998 10 16.0934 0 0
2:52 pm 14:52 Partly Cloudy 78 25.6 53 11.7 42 42 SSE 10 17 29.45 997 10 16.0934 0 0
3:52 pm 15:52 Mostly Cloudy 76 24.4 49 9.4 39 39 SSE 8 13 29.44 997 10 16.0934 0 0
4:52 pm 16:52 Mostly Cloudy 79 26.1 52 11.1 39 39 W 9 15 29.43 997 10 16.0934 0 0
5:52 pm 17:52 Cloudy 77 25 50 10 39 39 WSW 9 15 29.44 997 10 16.0934 0 0
6:52 pm 18:52 Mostly Cloudy 68 20 58 14.4 70 70 E 7 11 29.44 997 10 16.0934 0.01 0.254
7:52 pm 19:52 Mostly Cloudy with Nearby Thunderstorms 68 20 59 15 73 73 Calm 29.44 997 10 16.0934 0 0
7:58 pm 19:58 Mostly Cloudy with Thunderstorms 68 20 59 15 73 73 Calm 29.45 997 10 16.0934 0 0
8:21 pm 20:21 Cloudy with Nearby Thunderstorms 70 21.1 57 13.9 64 64 VRB 5 7 29.47 998 10 16.0934 0 0
8:52 pm 20:52 Cloudy 67 19.4 58 14.4 73 73 ENE 3 6 29.48 998 10 16.0934 0 0
9:52 pm 21:52 Cloudy 67 19.4 57 13.9 71 71 S 3 6 29.49 999 10 16.0934 0 0
10:52 pm 22:52 Mostly Cloudy 66 18.9 55 12.8 68 68 NNW 13 20 29.53 1000 10 16.0934 0 0
11:52 pm 23:52 Mostly Cloudy 64 17.8 52 11.1 65 65 N 12 19 29.56 1001 10 16.0934 0 0

Powered by AerisWeather